Location: Eschentzwiller
(47.7125°N, 7.3981°E)
Time: 01:30:34
(UTC+00:00)

FALCON 9 DEB - Pass Details

Date: 27 October 2020
Orbit: 383 x 397 km, 53.0° (Epoch: 26 November)

Event Time Altitude Azimuth Distance (km) Brightness Sun altitude
Rises 18:13:36 0° 253° (WSW) 2,311 8.1 -19.6°
Reaches altitude 10° 18:15:42 10° 258° (WSW) 1,452 6.9 -20.0°
Maximum altitude 18:18:54 57° 338° (NNW) 480 3.4 -20.5°
Enters shadow 18:18:55 57° 339° (NNW) 480 3.3 -20.5°
